FW0983 Weather Reports


Display with metric or nautical units.
time (UTC)temp
F
wind
direction
speed
MPH
gust
MPH
rain 1hr
in
rain 24hr
in
rain mn
in
humidity
%
barometer
mb
20260504220028 80 186 12.0 24.0 0.00 0.00 0.00 47 1007.5
20260504214539 80 194 14.0 25.0 0.00 0.00 0.00 47 1007.6
20260504213030 80 227 17.0 28.0 0.00 0.00 0.00 47 1007.7
20260504211530 80 200 14.0 26.0 0.00 0.00 0.00 47 1007.8
20260504210030 80 202 14.0 26.0 0.00 0.00 0.00 47 1008.1
20260504204529 80 207 15.0 28.0 0.00 0.00 0.00 47 1008.3
20260504203030 80 177 14.0 25.0 0.00 0.00 0.00 47 1008.6
20260504201529 80 191 15.0 29.0 0.00 0.00 0.00 47 1008.8
20260504200033 80 216 15.0 29.0 0.00 0.00 0.00 47 1008.9
20260504194528 80 229 18.0 29.0 0.00 0.00 0.00 47 1009.1
20260504193030 80 208 16.0 25.0 0.00 0.00 0.00 47 1009.4
20260504191528 80 225 15.0 24.0 0.00 0.00 0.00 48 1009.3
20260504190027 79 161 17.0 28.0 0.00 0.00 0.00 48 1009.4
20260504184535 80 195 15.0 35.0 0.00 0.00 0.00 49 1009.4
20260504183035 79 197 21.0 30.0 0.00 0.00 0.00 49 1009.7
20260504181528 78 196 17.0 31.0 0.00 0.00 0.00 50 1009.7
20260504180028 78 228 18.0 31.0 0.00 0.00 0.00 50 1010.1
20260504174527 78 206 13.0 24.0 0.00 0.00 0.00 52 1010.1
20260504173030 78 178 17.0 26.0 0.00 0.00 0.00 53 1010.3
20260504171528 77 229 18.0 29.0 0.00 0.00 0.00 53 1010.5
20260504081529 63 182 7.0 13.0 0.00 0.00 0.00 69 1011.1
20260504044528 66 160 9.0 19.0 0.00 0.00 0.00 64 1013.0
20260504043030 66 178 9.0 16.0 0.00 0.00 0.00 64 1013.0
20260504041534 65 184 9.0 14.0 0.00 0.00 0.00 63 1013.1
20260504040030 65 175 8.0 14.0 0.00 0.00 0.00 63 1013.2
20260504034539 65 171 9.0 13.0 0.00 0.00 0.00 62 1013.2
20260504033030 65 155 9.0 14.0 0.00 0.00 0.00 62 1013.2
20260504031528 65 169 7.0 12.0 0.00 0.00 0.00 61 1013.3
20260504030036 66 144 7.0 12.0 0.00 0.00 0.00 60 1013.4
20260504024530 66 150 6.0 11.0 0.00 0.00 0.00 59 1013.4
20260504023027 66 161 7.0 12.0 0.00 0.00 0.00 58 1013.4
20260504021537 67 171 10.0 16.0 0.00 0.00 0.00 58 1013.3
20260504020036 67 182 8.0 12.0 0.00 0.00 0.00 56 1013.2
20260504014527 68 173 8.0 14.0 0.00 0.00 0.00 55 1013.1
20260504013035 69 167 8.0 12.0 0.00 0.00 0.00 54 1013.1
20260504011530 70 164 8.0 15.0 0.00 0.00 0.00 53 1013.0
20260504010027 70 167 11.0 16.0 0.00 0.00 0.00 53 1012.9
20260504004539 71 189 10.0 15.0 0.00 0.00 0.00 52 1013.0
20260504003028 72 171 9.0 17.0 0.00 0.00 0.00 51 1013.0
20260504001535 72 190 11.0 17.0 0.00 0.00 0.00 50 1013.3
20260504000029 73 194 12.0 18.0 0.00 0.00 0.00 50 1013.3
20260503234529 73 205 11.0 17.0 0.00 0.00 0.00 49 1013.3
20260503233029 74 200 9.0 16.0 0.00 0.00 0.00 49 1013.6
20260503231530 74 157 10.0 20.0 0.00 0.00 0.00 49 1013.7
20260503230028 74 190 6.0 21.0 0.00 0.00 0.00 49 1014.0
20260503224528 74 185 9.0 20.0 0.00 0.00 0.00 48 1014.1
20260503223028 74 223 11.0 19.0 0.00 0.00 0.00 48 1014.3
20260503221532 74 190 8.0 18.0 0.00 0.00 0.00 48 1014.4